Find Starlink 11083

NORAD ID: 59424 Int'l Des: 2024-065 Owner: SPXS Country: US Constellation: starlink operational
LEOCIRCULAR

当前视图

正在加载3D地球...

About Starlink 11083

Starlink 11083 (NORAD 59424) is a starlink constellation satellite (v2 mini d2c) launched Apr 7, 2024 by SPXS of US. It operates in LEO, CIRCULAR orbit with a mass of 960.00 kg.

关于 Starlink 11083

正在加载描述...

即将过境

Passes for default location (London). Set your location on the main map for personalized predictions.

高度历史

Loading altitude history...

两行轨道根数

1 59424U 24065D 26170.69833292 .00000935 00000-0 12574-4 0 9999
2 59424 53.1595 311.0960 0001017 85.0772 275.0362 15.69717557127493
Epoch: Jun 19, 2026 • Age: 52 hours

当前状态

高度 360.0 km
速度 7.70 km/s
星下点 6.08°N, 83.72°E
发射日期 Apr 7, 2024
运行时间 2.2 years
类型 internet

技术详情

分类 Payload
质量 960.00 kg
干质量 910.00 kg
总质量 960.00 kg
长度 0.30 m
直径 4.10 m
跨度 29.00 m
形状 Box + pan
制造商 SPXS
平台类型 Starlink V2MD
阶段状态 In Orbit
所有者/国家 SPXS/US

Most Searched